1537610400.53,1440,17.94,73788.0,0.35,0.01,0.09,0,*72
1537610401.7,1441,17.94,73784.8,0.33,0.05,0.09,0,*71
1537610402.88,1442,17.94,73788.3,0.35,0.09,0.13,0,*43
1537610404.05,1443,17.94,73790.8,0.33,0.09,0.09,0,*7F
1537610405.26,1444,17.94,73806.3,0.33,0.09,0.21,0,*42
1537610406.44,1445,17.94,73790.3,0.35,0.09,0.21,0,*45
1537610407.64,1446,17.94,73766.3,0.35,0.13,0.21,0,*7D
1537610408.82,1447,17.94,73744.8,0.33,0.09,0.09,0,*7B
1537610409.99,1448,17.94,73766.3,0.33,0.05,0.09,0,*78
1537610411.17,1449,17.94,73734.0,0.35,0.09,0.13,0,*48
1537610412.34,1450,17.94,73758.0,0.35,0.09,0.13,0,*40
1537610413.52,1451,17.94,73754.0,0.33,0.09,0.09,0,*7C
1537610414.67,1452,17.94,73740.0,0.35,0.09,0.09,0,*79
1537610415.85,1453,17.94,73762.5,0.35,0.09,0.13,0,*43
1537610416.99,1454,17.94,73768.3,0.35,0.01,0.09,0,*77
1537610418.17,1455,17.94,73772.3,0.33,-0.07,-0.07,0,*78
1537610419.34,1456,17.94,73772.8,0.35,-0.03,-0.03,0,*7D
1537610420.49,1457,17.94,73770.8,0.35,-0.03,0.01,0,*53
1537610421.66,1458,17.94,73784.8,0.35,-0.11,-0.03,0,*40
1537610422.82,1459,17.94,73788.8,0.35,-0.03,-0.03,0,*72
1537610424.01,1460,17.94,73774.3,0.33,-0.15,-0.07,0,*4D
1537610425.16,1461,17.94,73788.5,0.35,0.01,-0.03,0,*56
1537610426.34,1462,17.94,73812.8,0.33,-0.03,-0.03,0,*7C
1537610427.49,1463,17.94,73762.8,0.35,0.01,0.01,0,*7B
1537610428.63,1464,17.94,73782.0,0.35,0.01,0.01,0,*7C
1537610429.78,1465,17.94,73800.8,0.35,0.01,0.01,0,*7D
1537610430.93,1466,17.94,73798.0,0.35,0.01,-0.03,0,*51
1537610432.08,1467,17.94,73786.3,0.35,-0.03,0.01,0,*50
1537610433.24,1468,17.94,73794.0,0.35,-0.03,-0.03,0,*70
1537610434.42,1469,17.94,73778.0,0.33,-0.07,-0.07,0,*77
1537610435.57,1470,17.94,73770.0,0.35,0.01,0.01,0,*79
1537610436.74,1471,17.94,73744.3,0.35,0.13,0.09,0,*43
1537610437.94,1472,17.94,73752.0,0.35,0.13,0.13,0,*7B
1537610439.12,1473,17.94,73788.8,0.35,0.09,0.13,0,*41
1537610440.27,1474,17.94,73776.5,0.35,0.09,0.09,0,*7D
1537610441.45,1475,17.94,73774.3,0.35,0.13,0.09,0,*47
1537610442.6,1476,17.94,73808.0,0.35,0.09,0.09,0,*7F
1537610443.78,1477,17.94,73814.8,0.35,0.09,0.13,0,*45
1537610444.95,1478,17.94,73788.3,0.37,0.09,0.01,0,*7B
1537610446.12,1479,17.94,73808.3,0.37,0.09,0.01,0,*7A
1537610447.29,1480,17.94,73814.8,0.37,0.01,0.09,0,*7C
1537610448.45,1481,17.94,73804.0,0.37,0.01,0.01,0,*75
1537610449.6,1482,17.94,73810.8,0.39,0.05,0.05,0,*78
1537610450.78,1483,17.94,73798.0,0.37,-0.03,0.01,0,*58
1537610451.94,1484,17.94,73806.5,0.37,0.01,0.01,0,*70
1537610453.1,1485,17.94,73784.5,0.39,0.05,0.05,0,*7F
1537610454.28,1486,17.94,73724.0,0.37,-0.03,-0.03,0,*72
1537610455.45,1487,17.94,73726.0,0.37,-0.03,0.01,0,*5C
1537610456.62,1488,17.94,73744.0,0.37,0.01,0.01,0,*7C
1537610457.79,1489,17.94,73762.5,0.37,-0.03,0.01,0,*52
1537610458.95,1490,17.94,73756.8,0.39,-0.03,-0.03,0,*7B
1537610460.13,1491,17.94,73774.0,0.37,-0.03,-0.03,0,*74
1537610461.31,1492,17.88,73786.0,0.37,-0.03,0.01,0,*58
1537610462.45,1493,17.94,73790.5,0.39,0.01,0.01,0,*78
1537610463.61,1494,17.94,73788.3,0.39,-0.07,-0.07,0,*7F
1537610464.76,1495,17.94,73784.0,0.39,-0.07,0.01,0,*55
1537610465.91,1496,17.94,73792.3,0.39,-0.07,0.01,0,*56
1537610467.11,1497,17.94,73784.3,0.37,-0.11,-0.15,0,*76
1537610468.31,1498,17.94,73784.5,0.37,-0.11,-0.11,0,*7D
1537610469.46,1499,17.94,73794.0,0.39,-0.07,0.01,0,*59
1537610470.65,1500,17.94,73784.0,0.37,-0.11,-0.03,0,*4E
1537610471.79,1501,17.94,73788.3,0.39,0.01,0.01,0,*72
1537610472.98,1502,17.94,73796.3,0.37,-0.11,-0.03,0,*4C
1537610474.16,1503,17.94,73794.0,0.37,-0.11,-0.03,0,*4D
1537610475.33,1504,17.94,73802.0,0.39,-0.11,-0.07,0,*40
1537610476.53,1505,17.94,73806.8,0.37,-0.15,-0.11,0,*7C
1537610477.72,1506,17.94,73802.5,0.37,-0.11,-0.15,0,*7F
1537610478.89,1507,17.94,73802.0,0.39,-0.15,-0.11,0,*70
1537610480.09,1508,17.94,73796.8,0.37,-0.11,-0.11,0,*75
1537610481.27,1509,17.94,73806.5,0.39,-0.11,-0.11,0,*7A
1537610482.44,1510,17.94,73794.0,0.39,-0.11,-0.11,0,*72
1537610483.61,1511,17.94,73806.5,0.39,-0.11,-0.07,0,*44
1537610484.78,1512,17.94,73812.5,0.39,-0.11,-0.07,0,*47
1537610485.93,1513,17.94,73806.3,0.39,-0.07,-0.07,0,*71
1537610487.1,1514,17.94,73810.3,0.39,-0.07,-0.11,0,*41
1537610488.29,1515,17.94,73814.0,0.37,-0.15,-0.15,0,*79
1537610489.46,1516,17.94,73806.5,0.39,-0.11,-0.07,0,*43
1537610490.64,1517,17.94,73820.5,0.39,-0.11,-0.11,0,*75
1537610491.83,1518,17.94,73810.0,0.37,-0.15,-0.15,0,*74
1537610493.03,1519,17.94,73812.5,0.37,-0.11,-0.11,0,*75
1537610494.23,1520,17.94,73804.8,0.37,-0.11,-0.11,0,*7F
1537610495.39,1521,17.94,73802.5,0.39,-0.11,-0.07,0,*47
1537610496.59,1522,17.88,73794.8,0.37,-0.11,-0.15,0,*79
1537610497.78,1523,17.94,73798.5,0.37,-0.15,-0.15,0,*7C
1537610498.95,1524,17.94,73798.3,0.39,-0.11,-0.07,0,*42
1537610500.11,1525,17.94,73796.3,0.39,-0.07,-0.07,0,*74
1537610501.28,1526,17.94,73808.3,0.39,-0.11,-0.11,0,*77
1537610502.45,1527,17.94,73816.0,0.39,-0.07,-0.11,0,*41
1537610503.62,1528,17.94,73808.5,0.39,-0.11,-0.11,0,*79
1537610504.8,1529,17.94,73810.0,0.39,-0.11,-0.11,0,*78
1537610505.97,1530,17.94,73800.0,0.39,-0.11,-0.19,0,*78
1537610507.14,1531,17.94,73818.3,0.39,-0.19,-0.07,0,*4E
1537610508.31,1532,17.94,73822.5,0.39,-0.19,-0.11,0,*7A
1537610509.52,1533,17.94,73834.8,0.39,-0.23,-0.23,0,*73
1537610510.74,1534,17.94,73828.5,0.37,-0.23,-0.15,0,*7F
1537610511.94,1535,17.94,73828.5,0.41,-0.19,-0.15,0,*76
1537610513.11,1536,17.94,73834.8,0.39,-0.19,-0.19,0,*76
1537610514.3,1537,17.94,73834.3,0.39,-0.23,-0.11,0,*76
1537610515.5,1538,17.94,73828.5,0.39,-0.23,-0.19,0,*71
1537610516.67,1539,17.94,73832.8,0.39,-0.19,-0.19,0,*79
1537610517.84,1540,17.94,73812.8,0.39,-0.19,-0.19,0,*77
1537610519.01,1541,17.94,73802.0,0.39,-0.19,-0.19,0,*76
1537610520.22,1542,17.94,73786.5,0.39,-0.23,-0.23,0,*75
1537610521.39,1543,17.94,73784.5,0.39,-0.19,-0.19,0,*74
1537610522.57,1544,17.94,73786.8,0.39,-0.19,-0.19,0,*73
1537610523.74,1545,17.94,73790.3,0.39,-0.19,-0.19,0,*72
1537610524.93,1546,17.94,73810.0,0.39,-0.23,-0.19,0,*78
1537610526.1,1547,17.94,73814.5,0.39,-0.19,-0.19,0,*70
1537610527.27,1548,17.88,73812.3,0.39,-0.19,-0.19,0,*7F
1537610528.47,1549,17.94,73816.5,0.39,-0.19,-0.23,0,*77
1537610529.66,1550,17.94,73814.5,0.39,-0.23,-0.19,0,*7F
1537610530.85,1551,17.94,73814.8,0.41,-0.19,-0.19,0,*78
1537610532.04,1552,17.94,73812.3,0.41,-0.15,-0.19,0,*77
1537610533.23,1553,17.94,73814.3,0.39,-0.19,-0.23,0,*7C
1537610534.44,1554,17.94,73808.5,0.39,-0.23,-0.23,0,*72
1537610535.66,1555,17.94,73820.3,0.37,-0.27,-0.19,0,*70
1537610536.87,1556,17.94,73824.0,0.39,-0.23,-0.23,0,*70
1537610538.07,1557,17.94,73820.0,0.39,-0.19,-0.23,0,*78
1537610539.26,1558,17.94,73822.0,0.39,-0.19,-0.23,0,*77
1537610540.47,1559,17.94,73822.3,0.39,-0.23,-0.23,0,*7F
1537610541.66,1560,17.94,73820.3,0.39,-0.23,-0.19,0,*7C
1537610542.88,1561,17.94,73822.0,0.39,-0.23,-0.23,0,*74
1537610544.07,1562,17.94,73816.5,0.39,-0.23,-0.19,0,*7E
1537610545.26,1563,17.94,73814.5,0.39,-0.23,-0.19,0,*7F
1537610546.46,1564,17.94,73812.3,0.39,-0.19,-0.23,0,*78
1537610547.65,1565,17.94,73816.0,0.39,-0.23,-0.19,0,*79
1537610548.86,1566,17.94,73812.5,0.39,-0.23,-0.23,0,*73
1537610550.05,1567,17.94,73812.0,0.39,-0.23,-0.19,0,*7B
1537610551.24,1568,17.94,73806.3,0.41,-0.15,-0.15,0,*72
1537610552.46,1569,17.94,73808.0,0.39,-0.23,-0.23,0,*7C
1537610553.67,1570,17.94,73810.8,0.41,-0.27,-0.19,0,*76
1537610554.86,1571,17.94,73806.0,0.43,-0.27,-0.19,0,*75
1537610556.05,1572,17.94,73798.0,0.41,-0.19,-0.19,0,*79
1537610557.24,1573,17.94,73808.0,0.41,-0.19,-0.19,0,*78
1537610558.43,1574,17.94,73804.0,0.41,-0.19,-0.29,0,*7C
1537610559.62,1575,17.94,73804.0,0.43,-0.27,-0.19,0,*71
1537610560.83,1576,17.94,73800.0,0.41,-0.27,-0.19,0,*70
1537610562.07,1577,17.94,73810.8,0.41,-0.27,-0.27,0,*7C
1537610563.23,1578,17.94,73808.8,0.39,-0.29,-0.29,0,*7C
1537610564.46,1579,17.94,73810.0,0.41,-0.27,-0.27,0,*72
1537610565.67,1580,17.94,73810.0,0.43,-0.27,-0.27,0,*76
1537610566.88,1581,17.94,73806.0,0.41,-0.19,-0.27,0,*78
1537610568.12,1582,17.94,73806.8,0.41,-0.27,-0.27,0,*76
1537610569.35,1583,17.94,73806.0,0.41,-0.27,-0.27,0,*77
1537610570.56,1584,17.94,73808.3,0.41,-0.19,-0.27,0,*7D
1537610571.75,1585,17.94,73810.8,0.41,-0.29,-0.19,0,*72
1537610572.96,1586,17.94,73814.3,0.41,-0.27,-0.19,0,*7F
1537610574.12,1587,17.94,73812.5,0.39,-0.33,-0.29,0,*77
1537610575.36,1588,17.94,73818.3,0.41,-0.27,-0.27,0,*7C
1537610576.57,1589,17.88,73816.0,0.41,-0.27,-0.19,0,*70
1537610577.78,1590,17.94,73822.3,0.41,-0.27,-0.29,0,*7B
1537610578.99,1591,17.94,73812.8,0.43,-0.27,-0.27,0,*76
1537610580.22,1592,17.94,73812.0,0.41,-0.27,-0.27,0,*77
1537610581.43,1593,17.88,73810.5,0.43,-0.27,-0.27,0,*74
1537610582.64,1594,17.94,73818.5,0.41,-0.29,-0.27,0,*7F
1537610583.82,1595,17.88,73818.3,0.41,-0.29,-0.29,0,*70
1537610585.03,1596,17.94,73820.0,0.41,-0.27,-0.29,0,*7D
1537610586.23,1597,17.94,73826.0,0.41,-0.29,-0.27,0,*7C
1537610587.47,1598,17.88,73826.8,0.41,-0.27,-0.27,0,*7D
1537610588.67,1599,17.88,73830.8,0.41,-0.29,-0.27,0,*72
1537610589.85,1600,17.88,73830.5,0.41,-0.29,-0.29,0,*7F
1537610591.06,1601,17.94,73830.0,0.41,-0.27,-0.29,0,*70
1537610592.27,1602,17.94,73830.5,0.41,-0.27,-0.29,0,*73
1537610593.47,1603,17.94,73828.5,0.41,-0.29,-0.27,0,*72
1537610594.65,1604,17.94,73826.8,0.41,-0.29,-0.29,0,*7B
1537610595.82,1605,17.94,73824.5,0.39,-0.33,-0.33,0,*75
1537610597.0,1606,17.94,73830.0,0.41,-0.29,-0.29,0,*79
1537610598.23,1607,17.88,73824.0,0.41,-0.27,-0.27,0,*78
1537610599.44,1608,17.88,73826.3,0.41,-0.27,-0.29,0,*79
1537610600.65,1609,17.94,73830.3,0.41,-0.29,-0.27,0,*78
1537610601.82,1610,17.88,73824.3,0.41,-0.29,-0.29,0,*7E
1537610602.98,1611,17.94,73826.3,0.43,-0.29,-0.29,0,*7D
1537610604.19,1612,17.94,73826.3,0.41,-0.27,-0.29,0,*72
1537610605.37,1613,17.88,73826.5,0.41,-0.29,-0.29,0,*7D
1537610606.55,1614,17.94,73824.5,0.43,-0.27,-0.29,0,*76
1537610607.76,1615,17.94,73824.5,0.41,-0.29,-0.27,0,*75
1537610608.94,1616,17.88,73820.5,0.41,-0.29,-0.29,0,*78
1537610610.14,1617,17.94,73822.5,0.41,-0.29,-0.27,0,*77
1537610611.3,1618,17.94,73824.5,0.43,-0.29,-0.29,0,*74
1537610612.51,1619,17.94,73828.5,0.41,-0.27,-0.29,0,*79
1537610613.69,1620,17.88,73826.3,0.41,-0.29,-0.29,0,*7D
1537610614.84,1621,17.88,73830.0,0.43,-0.29,-0.29,0,*7E
1537610616.0,1622,17.94,73832.0,0.43,-0.29,-0.29,0,*7D
1537610617.18,1623,17.94,73834.5,0.41,-0.29,-0.29,0,*7E
1537610618.36,1624,17.94,73838.0,0.41,-0.29,-0.29,0,*79
1537610619.54,1625,17.94,73836.3,0.41,-0.29,-0.29,0,*78
1537610620.72,1626,17.94,73838.0,0.41,-0.29,-0.29,0,*7B
1537610621.93,1627,17.94,73836.5,0.41,-0.27,-0.29,0,*74
1537610623.1,1628,17.88,73836.0,0.41,-0.29,-0.29,0,*75
1537610624.28,1629,17.88,73834.8,0.41,-0.29,-0.29,0,*74
1537610625.46,1630,17.88,73836.0,0.41,-0.33,-0.29,0,*77
1537610626.62,1631,17.94,73834.5,0.43,-0.33,-0.29,0,*74
1537610627.8,1632,17.88,73834.5,0.41,-0.33,-0.29,0,*75
1537610628.96,1633,17.88,73830.3,0.43,-0.33,-0.29,0,*76
1537610630.14,1634,17.88,73834.5,0.41,-0.29,-0.29,0,*78
1537610631.29,1635,17.88,73834.5,0.43,-0.29,-0.29,0,*7B
1537610632.45,1636,17.94,73838.8,0.43,-0.29,-0.29,0,*78
1537610633.63,1637,17.94,73838.5,0.41,-0.29,-0.29,0,*7B
1537610634.81,1638,17.94,73836.5,0.41,-0.29,-0.29,0,*74
1537610635.97,1639,17.94,73832.5,0.43,-0.29,-0.33,0,*7C
1537610637.16,1640,17.88,73834.8,0.41,-0.29,-0.33,0,*70
1537610638.34,1641,17.94,73842.8,0.41,-0.29,-0.33,0,*71
1537610639.53,1642,17.94,73836.0,0.41,-0.29,-0.33,0,*72
1537610640.69,1643,17.88,73832.3,0.43,-0.29,-0.41,0,*74
1537610641.86,1644,17.88,73832.8,0.43,-0.29,-0.33,0,*76
1537610643.02,1645,17.88,73834.5,0.43,-0.29,-0.33,0,*77
1537610644.18,1646,17.94,73836.0,0.43,-0.29,-0.33,0,*74
1537610645.37,1647,17.88,73834.3,0.41,-0.33,-0.33,0,*7C
1537610646.55,1648,17.94,73836.5,0.41,-0.33,-0.33,0,*73
1537610647.72,1649,17.88,73828.8,0.43,-0.33,-0.33,0,*70
1537610648.9,1650,17.94,73836.8,0.41,-0.33,-0.33,0,*7A
1537610650.09,1651,17.88,73832.8,0.41,-0.33,-0.33,0,*7B
1537610651.27,1652,17.88,73832.8,0.41,-0.33,-0.33,0,*78
1537610652.46,1653,17.88,73832.8,0.41,-0.33,-0.33,0,*79
1537610653.62,1654,17.88,73832.3,0.43,-0.33,-0.33,0,*7C
1537610654.81,1655,17.88,73834.8,0.41,-0.33,-0.33,0,*7F
1537610655.97,1656,17.88,73836.8,0.43,-0.33,-0.33,0,*7E
1537610657.16,1657,17.88,73836.0,0.41,-0.33,-0.33,0,*7D
1537610658.32,1658,17.88,73838.3,0.43,-0.33,-0.33,0,*70
1537610659.49,1659,17.88,73838.8,0.43,-0.33,-0.41,0,*74
1537610660.65,1660,17.94,73840.0,0.43,-0.33,-0.33,0,*7B
1537610661.81,1661,17.88,73840.8,0.43,-0.33,-0.33,0,*7A
1537610663.0,1662,17.88,73842.5,0.41,-0.33,-0.41,0,*7E
1537610664.19,1663,17.88,73840.5,0.41,-0.33,-0.33,0,*7A
1537610665.35,1664,17.94,73840.8,0.43,-0.33,-0.33,0,*7F
1537610666.54,1665,17.88,73840.0,0.41,-0.33,-0.33,0,*7C
1537610667.72,1666,17.88,73840.5,0.41,-0.33,-0.33,0,*7F
1537610668.91,1667,17.88,73840.5,0.41,-0.33,-0.33,0,*7E
1537610670.07,1668,17.88,73840.5,0.43,-0.33,-0.33,0,*73
1537610671.26,1669,17.88,73844.5,0.41,-0.33,-0.33,0,*70
1537610672.45,1670,17.88,73844.0,0.41,-0.33,-0.33,0,*78
1537610673.61,1671,17.88,73844.3,0.43,-0.33,-0.33,0,*7B
1537610674.77,1672,17.94,73850.8,0.43,-0.33,-0.41,0,*7D
1537610675.96,1673,17.88,73846.8,0.41,-0.33,-0.33,0,*7B
1537610677.15,1674,17.88,73846.3,0.41,-0.33,-0.33,0,*7C
1537610678.33,1675,17.88,73846.5,0.41,-0.33,-0.33,0,*7D
1537610679.5,1676,17.88,73844.5,0.43,-0.33,-0.33,0,*7C
1537610680.68,1677,17.88,73842.8,0.41,-0.33,-0.33,0,*7F
1537610681.85,1678,17.88,73846.8,0.43,-0.33,-0.41,0,*77
1537610683.04,1679,17.88,73842.0,0.41,-0.33,-0.33,0,*71
1537610684.22,1680,17.88,73844.0,0.41,-0.33,-0.33,0,*77
1537610685.41,1681,17.88,73846.5,0.41,-0.33,-0.33,0,*76
1537610686.57,1682,17.88,73842.5,0.43,-0.33,-0.33,0,*77
1537610687.74,1683,17.88,73840.0,0.43,-0.41,-0.33,0,*73
1537610688.94,1684,17.88,73840.0,0.41,-0.41,-0.41,0,*73
1537610690.12,1685,17.88,73840.8,0.41,-0.33,-0.33,0,*72
1537610691.29,1686,17.88,73842.3,0.43,-0.33,-0.33,0,*73
1537610692.45,1687,17.88,73840.8,0.43,-0.33,-0.41,0,*77
1537610693.64,1688,17.88,73838.3,0.41,-0.33,-0.33,0,*7F
1537610694.83,1689,17.88,73842.8,0.41,-0.41,-0.33,0,*7B
1537610696.02,1690,17.88,73836.8,0.41,-0.33,-0.41,0,*73
1537610697.19,1691,17.88,73834.5,0.43,-0.41,-0.33,0,*70
1537610698.36,1692,17.88,73832.3,0.43,-0.33,-0.41,0,*73
1537610699.55,1693,17.88,73834.0,0.41,-0.41,-0.33,0,*70
1537610700.72,1694,17.88,73832.0,0.43,-0.33,-0.41,0,*75
1537610701.89,1695,17.88,73824.5,0.43,-0.33,-0.41,0,*74
1537610703.08,1696,17.88,73816.5,0.41,-0.41,-0.41,0,*70
1537610704.26,1697,17.88,73822.8,0.43,-0.41,-0.41,0,*73
1537610705.42,1698,17.88,73838.3,0.43,-0.33,-0.33,0,*7C
1537610706.59,1699,17.94,73844.5,0.43,-0.41,-0.41,0,*7D
1537610707.79,1700,17.88,73840.0,0.41,-0.41,-0.41,0,*7E
1537610708.99,1701,17.88,73840.5,0.41,-0.41,-0.41,0,*7F
1537610710.17,1702,17.88,73840.8,0.41,-0.33,-0.33,0,*7C
1537610711.34,1703,17.88,73838.3,0.43,-0.41,-0.33,0,*7A
1537610712.52,1704,17.88,73838.8,0.43,-0.41,-0.41,0,*78
1537610713.69,1705,17.94,73842.0,0.43,-0.41,-0.41,0,*79
1537610714.88,1706,17.88,73836.0,0.41,-0.33,-0.41,0,*7D
1537610716.07,1707,17.88,73834.8,0.41,-0.33,-0.41,0,*7C
1537610717.24,1708,17.88,73834.0,0.43,-0.33,-0.41,0,*71
1537610718.41,1709,17.88,73838.3,0.43,-0.41,-0.41,0,*75
1537610719.61,1710,17.88,73838.5,0.41,-0.41,-0.41,0,*7F
1537610720.8,1711,17.88,73836.0,0.41,-0.41,-0.33,0,*7B
1537610721.97,1712,17.88,73840.3,0.43,-0.41,-0.41,0,*7F
1537610723.14,1713,17.88,73838.8,0.43,-0.33,-0.41,0,*7B
1537610724.32,1714,17.88,73836.5,0.43,-0.41,-0.41,0,*79
1537610725.51,1715,17.94,73842.5,0.41,-0.33,-0.41,0,*7F
1537610726.7,1716,17.88,73832.3,0.41,-0.41,-0.41,0,*79
1537610727.9,1717,17.88,73844.8,0.41,-0.45,-0.41,0,*7C
1537610729.09,1718,17.88,73842.8,0.41,-0.45,-0.33,0,*76
1537610730.28,1719,17.88,73842.5,0.41,-0.41,-0.41,0,*76
1537610731.47,1720,17.88,73836.5,0.41,-0.33,-0.45,0,*7D
1537610732.64,1721,17.88,73840.0,0.43,-0.41,-0.41,0,*7F
1537610733.83,1722,17.88,73848.8,0.41,-0.45,-0.41,0,*7A
1537610735.03,1723,17.88,73842.5,0.41,-0.45,-0.41,0,*7B
1537610736.19,1724,17.88,73828.8,0.43,-0.45,-0.41,0,*7E
1537610737.38,1725,17.88,73816.3,0.41,-0.41,-0.45,0,*7D
1537610738.56,1726,17.88,73808.0,0.43,-0.41,-0.41,0,*78
1537610739.73,1727,17.88,73806.8,0.43,-0.41,-0.41,0,*79
1537610740.9,1728,17.88,73808.0,0.43,-0.53,-0.45,0,*71
1537610742.09,1729,17.94,73808.0,0.41,-0.45,-0.41,0,*71
1537610743.25,1730,17.88,73804.5,0.43,-0.45,-0.45,0,*7F
1537610744.44,1731,17.88,73804.8,0.41,-0.41,-0.45,0,*78
1537610745.63,1732,17.88,73810.0,0.41,-0.41,-0.45,0,*7B
1537610746.83,1733,17.88,73814.5,0.41,-0.41,-0.41,0,*7E
1537610748.02,1734,17.88,73822.3,0.41,-0.41,-0.33,0,*7C
1537610749.21,1735,17.88,73822.8,0.41,-0.41,-0.45,0,*7C
1537610750.41,1736,17.94,73820.8,0.41,-0.41,-0.41,0,*7B
1537610751.57,1737,17.88,73818.5,0.43,-0.45,-0.45,0,*78
1537610752.74,1738,17.88,73822.8,0.43,-0.41,-0.45,0,*73
1537610753.93,1739,17.88,73820.5,0.41,-0.41,-0.45,0,*70
1537610755.1,1740,17.88,73826.3,0.43,-0.41,-0.45,0,*7C
1537610756.26,1741,17.88,73824.3,0.43,-0.45,-0.53,0,*7E
1537610757.43,1742,17.88,73824.0,0.43,-0.41,-0.45,0,*7E
1537610758.61,1743,17.88,73828.0,0.41,-0.45,-0.53,0,*7E
1537610759.78,1744,17.88,73832.3,0.43,-0.41,-0.53,0,*7F
1537610760.94,1745,17.88,73832.5,0.43,-0.53,-0.53,0,*7D
1537610762.11,1746,17.88,73830.3,0.43,-0.45,-0.45,0,*7E
1537610763.27,1747,17.88,73840.3,0.43,-0.45,-0.45,0,*7F
1537610764.43,1748,17.88,73840.8,0.43,-0.45,-0.45,0,*70
1537610765.6,1749,17.88,73842.5,0.43,-0.53,-0.45,0,*76
1537610766.76,1750,17.88,73842.5,0.43,-0.45,-0.45,0,*79
1537610767.93,1751,17.94,73842.5,0.43,-0.41,-0.45,0,*7C
1537610769.12,1752,17.88,73842.0,0.41,-0.41,-0.45,0,*7D
1537610770.28,1753,17.88,73844.0,0.43,-0.41,-0.45,0,*7E
1537610771.45,1754,17.88,73844.3,0.43,-0.41,-0.45,0,*79
1537610772.61,1755,17.88,73846.3,0.43,-0.45,-0.45,0,*7C
1537610773.78,1756,17.94,73848.0,0.43,-0.45,-0.45,0,*7F
1537610774.94,1757,17.88,73850.8,0.43,-0.53,-0.45,0,*79
1537610776.11,1758,17.88,73844.5,0.43,-0.45,-0.45,0,*71
1537610777.27,1759,17.88,73844.8,0.43,-0.53,-0.45,0,*77
1537610778.46,1760,17.88,73852.8,0.41,-0.45,-0.45,0,*78
1537610779.62,1761,17.88,73852.8,0.43,-0.53,-0.45,0,*7C
1537610780.78,1762,17.88,73848.5,0.43,-0.45,-0.45,0,*78
1537610781.97,1763,17.88,73846.8,0.41,-0.41,-0.53,0,*78
1537610783.13,1764,17.88,73844.0,0.43,-0.45,-0.45,0,*7E
1537610784.3,1765,17.88,73842.5,0.43,-0.45,-0.45,0,*7F
1537610785.49,1766,17.88,73836.0,0.41,-0.53,-0.45,0,*79
1537610786.65,1767,17.88,73834.0,0.43,-0.45,-0.53,0,*7A
1537610787.81,1768,17.88,73832.3,0.43,-0.45,-0.45,0,*72
1537610789.0,1769,17.88,73832.3,0.41,-0.45,-0.53,0,*76
1537610790.18,1770,17.94,73840.8,0.41,-0.45,-0.45,0,*79
1537610791.35,1771,17.88,73840.3,0.43,-0.45,-0.45,0,*7A
1537610792.51,1772,17.88,73836.8,0.43,-0.45,-0.53,0,*7E
1537610793.67,1773,17.88,73840.0,0.43,-0.53,-0.53,0,*78
1537610794.86,1774,17.88,73834.8,0.41,-0.45,-0.45,0,*7D
1537610796.02,1775,17.88,73834.0,0.43,-0.53,-0.53,0,*7E
1537610797.18,1776,17.88,73836.8,0.43,-0.45,-0.45,0,*7D
1537610798.35,1777,17.88,73836.8,0.43,-0.53,-0.53,0,*7C
1537610799.51,1778,17.88,73842.5,0.43,-0.53,-0.53,0,*73
1537610800.69,1779,17.88,73838.0,0.41,-0.45,-0.53,0,*77
1537610801.85,1780,17.88,73842.8,0.43,-0.45,-0.53,0,*73
1537610803.02,1781,17.88,73840.0,0.43,-0.53,-0.45,0,*72
1537610804.18,1782,17.88,73842.5,0.43,-0.45,-0.53,0,*71
1537610805.37,1783,17.88,73838.5,0.41,-0.45,-0.53,0,*72
1537610806.53,1784,17.88,73838.3,0.43,-0.45,-0.45,0,*70
1537610807.69,1785,17.88,73836.5,0.43,-0.45,-0.45,0,*71
1537610808.86,1786,17.88,73830.3,0.43,-0.53,-0.53,0,*72
1537610810.02,1787,17.88,73832.0,0.43,-0.53,-0.53,0,*73
1537610811.18,1788,17.88,73834.5,0.43,-0.45,-0.53,0,*7B
1537610812.34,1789,17.88,73834.3,0.43,-0.45,-0.45,0,*7D
1537610813.51,1790,17.88,73838.3,0.43,-0.53,-0.45,0,*72
1537610814.69,1791,17.88,73840.5,0.41,-0.45,-0.53,0,*71
1537610815.85,1792,17.88,73838.5,0.43,-0.45,-0.53,0,*70
1537610817.02,1793,17.88,73846.8,0.43,-0.45,-0.45,0,*76
1537610818.18,1794,17.88,73850.0,0.43,-0.45,-0.45,0,*71
1537610819.37,1795,17.88,73850.0,0.41,-0.45,-0.53,0,*75
1537610820.53,1796,17.88,73844.5,0.43,-0.45,-0.45,0,*73
1537610821.69,1797,17.88,73850.8,0.43,-0.53,-0.45,0,*75
1537610822.88,1798,17.88,73848.3,0.41,-0.45,-0.53,0,*78
1537610824.06,1799,17.88,73850.5,0.41,-0.45,-0.53,0,*79
1537610825.25,1800,17.88,73844.0,0.41,-0.53,-0.45,0,*76
1537610826.41,1801,17.88,73844.5,0.43,-0.45,-0.53,0,*75
1537610827.6,1802,17.88,73842.3,0.41,-0.53,-0.53,0,*73
1537610828.79,1803,17.88,73842.3,0.41,-0.53,-0.45,0,*75
1537610829.95,1804,17.88,73840.8,0.43,-0.45,-0.45,0,*77
1537610831.11,1805,17.88,73836.3,0.43,-0.45,-0.45,0,*76
1537610832.28,1806,17.88,73836.8,0.43,-0.45,-0.45,0,*75
1537610833.46,1807,17.88,73842.8,0.41,-0.45,-0.53,0,*71
1537610834.62,1808,17.88,73836.8,0.43,-0.53,-0.45,0,*7C
1537610835.81,1809,17.88,73832.0,0.41,-0.45,-0.45,0,*78
1537610836.98,1810,17.88,73842.3,0.43,-0.45,-0.45,0,*72
1537610838.14,1811,17.88,73836.0,0.43,-0.53,-0.53,0,*73
1537610839.33,1812,17.88,73832.8,0.41,-0.45,-0.41,0,*76
1537610840.49,1813,17.88,73828.0,0.43,-0.45,-0.45,0,*71
1537610841.68,1814,17.88,73826.0,0.41,-0.45,-0.53,0,*73
1537610842.84,1815,17.88,73826.3,0.43,-0.53,-0.53,0,*77
1537610844.03,1816,17.88,73834.0,0.41,-0.45,-0.45,0,*76
1537610845.19,1817,17.88,73834.5,0.43,-0.53,-0.45,0,*72
1537610846.35,1818,17.88,73838.5,0.43,-0.45,-0.53,0,*7D
1537610847.54,1819,17.88,73838.0,0.41,-0.45,-0.45,0,*79
1537610848.7,1820,17.88,73838.8,0.43,-0.45,-0.53,0,*76
1537610849.87,1821,17.88,73838.3,0.43,-0.45,-0.45,0,*70
1537610851.03,1822,17.88,73838.3,0.43,-0.53,-0.53,0,*73
1537610852.2,1823,17.88,73834.5,0.43,-0.53,-0.41,0,*71
1537610853.36,1824,17.88,73836.0,0.43,-0.53,-0.53,0,*75
1537610854.53,1825,17.88,73832.3,0.43,-0.53,-0.45,0,*73
1537610855.69,1826,17.88,73836.0,0.43,-0.53,-0.45,0,*70
1537610856.85,1827,17.88,73836.0,0.43,-0.45,-0.45,0,*76
1537610858.02,1828,17.88,73834.3,0.43,-0.45,-0.45,0,*79
1537610859.18,1829,17.94,73840.5,0.43,-0.53,-0.45,0,*7F
1537610860.34,1830,17.88,73836.5,0.43,-0.53,-0.53,0,*70
1537610861.51,1831,17.88,73832.0,0.43,-0.45,-0.45,0,*71
1537610862.67,1832,17.88,73834.0,0.43,-0.45,-0.45,0,*72
1537610863.83,1833,17.88,73838.3,0.43,-0.53,-0.53,0,*73
1537610865.0,1834,17.88,73838.8,0.43,-0.45,-0.45,0,*74
1537610866.16,1835,17.88,73840.0,0.43,-0.53,-0.53,0,*75
1537610867.32,1836,17.88,73842.8,0.43,-0.45,-0.53,0,*71
1537610868.48,1837,17.88,73838.5,0.43,-0.45,-0.45,0,*77
1537610869.65,1838,17.88,73832.8,0.43,-0.45,-0.53,0,*7F
1537610870.81,1839,17.88,73818.8,0.43,-0.53,-0.45,0,*7E
1537610871.97,1840,17.88,73826.8,0.43,-0.45,-0.53,0,*70
1537610873.13,1841,17.88,73838.3,0.43,-0.45,-0.45,0,*76
1537610874.3,1842,17.94,73846.5,0.43,-0.45,-0.53,0,*72
1537610875.46,1843,17.88,73842.0,0.43,-0.53,-0.45,0,*73
1537610876.62,1844,17.88,73842.0,0.43,-0.45,-0.45,0,*73
1537610877.79,1845,17.88,73838.3,0.43,-0.53,-0.53,0,*72
1537610878.95,1846,17.88,73838.3,0.43,-0.45,-0.45,0,*71
1537610880.11,1847,17.88,73836.5,0.43,-0.45,-0.45,0,*70
1537610881.3,1848,17.88,73838.3,0.41,-0.45,-0.45,0,*7D
1537610882.47,1849,17.88,73836.5,0.43,-0.41,-0.45,0,*7A
1537610883.63,1850,17.88,73832.5,0.43,-0.53,-0.45,0,*71
1537610884.79,1851,17.88,73834.8,0.43,-0.53,-0.45,0,*70
1537610885.96,1852,17.88,73838.0,0.43,-0.45,-0.45,0,*74
1537610887.14,1853,17.88,73828.0,0.41,-0.53,-0.45,0,*70
1537610888.31,1854,17.88,73834.0,0.43,-0.53,-0.45,0,*75
1537610889.47,1855,17.88,73832.8,0.43,-0.41,-0.53,0,*70
1537610890.65,1856,17.88,73832.8,0.43,-0.41,-0.41,0,*70
1537610891.81,1857,17.88,73828.3,0.43,-0.45,-0.45,0,*71
1537610892.98,1858,17.88,73832.0,0.43,-0.33,-0.41,0,*7B
1537610894.17,1859,17.88,73828.3,0.41,-0.41,-0.41,0,*7D
1537610895.35,1860,17.88,73830.5,0.45,-0.29,-0.41,0,*7D
1537610896.54,1861,17.88,73828.8,0.41,-0.41,-0.41,0,*76
1537610897.72,1862,17.88,73826.5,0.43,-0.41,-0.41,0,*77
1537610898.88,1863,17.88,73828.0,0.43,-0.33,-0.41,0,*73
1537610900.05,1864,17.88,73828.8,0.43,-0.41,-0.33,0,*74
1537610901.22,1865,17.88,73828.8,0.43,-0.41,-0.33,0,*75
1537610902.41,1866,17.88,73832.8,0.41,-0.33,-0.33,0,*71
1537610903.6,1867,17.88,73834.8,0.41,-0.33,-0.41,0,*75
1537610904.77,1868,17.88,73834.8,0.43,-0.41,-0.41,0,*7D
1537610905.94,1869,17.88,73834.0,0.43,-0.41,-0.33,0,*79